Погода в Гизели

Россия / Республика Северная Осетия — Алания     43°02′31″N   44°34′11″E
темп.,
°C
ветер,
м/с
пор.,
м/с
влажн.,
%
обл.,
%
осадки,
мм/ч
давл.,
гПа
погр.,
м
20 апреля, вт
вт2000:00+12з139185 0.0 1016123
03:00+12юв2279100 0.0 101338
06:00+14ю2264100 0.0 101028
09:00+20всв124680 0.0 1008291
12:00+25ююз1432100 0.0 10051071
15:00+24св224025 0.0 1005703
18:00+22ю2346100 0.0 100683
21:00+16юв1162100 0.2 101152
21 апреля, ср
ср2100:00+14сз2387100 0.0 1013369
03:00+12ссз2393100 0.2 1014283
06:00+11с127987 0.1 1016551
09:00+11всв2268100 0.6 1018563
12:00+11ссв227395 1.4 1017608
15:00+10св238099 4.3 1019561
18:00+9св1286100 0.4 1021297
21:00+9ссв118994 1.4 1022142
22 апреля, чт
чт2200:00+8св019296 0.4 1021105
03:00+8ссз119398 0.4 1021119
06:00+8ссз1194100 0.1 1021176
09:00+9с228598 0.3 1022496
12:00+9ссв2281100 0.1 1023743
15:00+9св2282100 0.2 1021676
18:00+8св1285100 0.1 1022244
21:00+8с0186100 0.2 1021125
23 апреля, пт
пт2300:00+7ссз1195100 1.9 1020188
03:00+7сз2398100 3.1 1021270
06:00+7ю1296100 4.4 1022164
09:00+7ссз2298100 8.8 1023456
12:00+7з1393100 2.9 1024279
15:00+12ююв116760 3.1 1022663
18:00+11св127010 0.0 102299
21:00+7ю227730 0.0 102218
24 апреля, сб
сб2400:00+6ю2267100 0.0 102014
03:00+6ююз1164100 0.0 102013
06:00+7ю1168100 0.0 102116
09:00+11с22584 0.0 1020618
12:00+16ссв324551 0.0 10181250
15:00+16ссв424724 0.0 10181515
18:00+14св236318 0.0 1019251
21:00+10ю1176100 0.0 102039